Date,TemperatureHighF,TemperatureAvgF,TemperatureLowF,DewpointHighF,DewpointAvgF,DewpointLowF,HumidityHigh,HumidityAvg,HumidityLow,PressureMaxIn,PressureMinIn,WindSpeedMaxMPH,WindSpeedAvgMPH,GustSpeedMaxMPH,PrecipitationSumIn
2013-3-1,33.5,31.0,28.9,30.6,28.3,24.4,94,90,83,30.24,30.12,1,0,3,0.00
2013-3-2,34.0,28.8,21.6,24.7,21.1,18.3,88,74,55,30.31,30.24,2,0,7,0.00
2013-3-3,40.1,30.1,16.7,27.1,20.9,15.0,94,71,45,30.28,30.08,2,0,3,0.01
2013-3-4,54.7,43.7,35.3,44.0,33.1,26.1,86,67,47,30.09,29.79,4,1,8,0.00
2013-3-5,44.7,36.1,31.8,36.4,30.1,23.1,95,79,64,30.17,29.82,4,2,9,0.12
2013-3-6,39.6,32.8,23.8,26.5,23.8,21.1,91,70,55,30.41,30.17,3,1,6,0.00
2013-3-7,48.6,34.0,20.8,31.4,26.2,19.3,95,75,46,30.47,30.35,2,0,5,0.00
2013-3-8,54.2,41.5,27.3,34.4,30.5,25.5,94,67,42,30.48,30.24,4,1,9,0.00
2013-3-9,71.0,52.6,40.1,42.3,36.4,31.4,91,57,27,30.24,29.82,4,1,8,0.16
2013-3-10,59.2,53.7,46.3,52.7,48.5,41.5,97,84,55,29.83,29.67,2,0,4,1.10
2013-3-11,46.1,36.3,33.5,44.7,31.6,26.9,95,83,71,30.03,29.75,4,1,9,0.00
2013-3-12,52.8,38.8,28.8,29.5,25.4,22.5,85,61,33,30.26,30.03,6,1,8,0.00
2013-3-13,34.9,31.7,28.9,23.7,21.4,18.0,71,65,61,30.38,30.26,3,1,7,0.00
2013-3-24,32.7,32.7,32.7,31.7,31.7,31.7,96,96,96,29.68,29.68,0,0,0,0.00
2013-3-25,37.4,32.4,28.7,32.0,28.2,25.1,95,85,68,30.27,29.91,2,0,3,0.12
2013-3-26,42.5,34.2,26.3,26.7,24.9,22.2,89,70,46,30.44,30.28,2,0,8,0.30
2013-3-27,50.9,35.4,20.9,31.3,25.7,19.7,96,71,39,30.49,30.37,2,0,4,0.02
2013-3-28,58.0,46.8,36.9,39.6,33.3,27.0,75,60,45,30.44,30.29,4,1,8,0.00
2013-3-29,63.3,51.0,40.5,46.8,42.8,38.4,94,75,51,30.32,30.22,3,1,5,0.01
2013-3-30,53.8,45.2,36.4,47.7,42.9,35.4,98,92,71,30.25,29.96,2,0,4,0.12
2013-3-31,69.9,57.0,47.6,51.7,43.3,32.4,97,67,25,29.96,29.87,3,0,6,0.00